| time (UTC) | temp C | wind direction | speed KPH | gust KPH | rain 1hr cm | rain 24hr cm | rain mn cm | humidity % | barometer mb |
| 20260507060037 | 8 | 23 | 8.0 | 12.9 | 0.00 | 0.00 | 0.00 | 1 | 1014.4 |
| 20260507055018 | 8 | 23 | 9.7 | 14.5 | 0.00 | 0.00 | 0.00 | 1 | 1014.4 |
| 20260507054017 | 8 | 23 | 9.7 | 16.1 | 0.00 | 0.00 | 0.00 | 2 | 1014.3 |
| 20260507053021 | 8 | 23 | 9.7 | 12.9 | 0.00 | 0.00 | 0.00 | 7 | 1014.2 |
| 20260507052016 | 8 | 45 | 11.3 | 14.5 | 0.00 | 0.00 | 0.00 | 13 | 1014.1 |
| 20260507051028 | 8 | 45 | 9.7 | 14.5 | 0.00 | 0.00 | 0.00 | 6 | 1014.0 |
| 20260507050016 | 8 | 23 | 11.3 | 16.1 | 0.00 | 0.00 | 0.00 | 5 | 1013.9 |
| 20260507045018 | 8 | 23 | 12.9 | 16.1 | 0.00 | 0.00 | 0.00 | 6 | 1013.9 |
| 20260507044016 | 7 | 0 | 11.3 | 16.1 | 0.00 | 0.00 | 0.00 | 2 | 1013.8 |
| 20260507043016 | 7 | 0 | 11.3 | 12.9 | 0.00 | 0.00 | 0.00 | 3 | 1013.8 |
| 20260507042016 | 7 | 0 | 9.7 | 14.5 | 0.00 | 0.00 | 0.00 | 5 | 1013.7 |
| 20260507041018 | 7 | 0 | 9.7 | 14.5 | 0.00 | 0.00 | 0.00 | 1 | 1013.7 |
| 20260507040018 | 7 | 0 | 9.7 | 12.9 | 0.00 | 0.00 | 0.00 | 1 | 1013.6 |
| 20260507035018 | 7 | 0 | 8.0 | 12.9 | 0.00 | 0.00 | 0.00 | 1 | 1013.5 |
| 20260507034056 | 7 | 338 | 6.4 | 9.7 | 0.00 | 0.00 | 0.00 | 1 | 1013.5 |
| 20260507033016 | 7 | 338 | 6.4 | 8.0 | 0.00 | 0.00 | 0.00 | 1 | 1013.4 |
| 20260507032017 | 7 | 338 | 6.4 | 8.0 | 0.00 | 0.00 | 0.00 | 1 | 1013.5 |
| 20260507031016 | 7 | 338 | 6.4 | 9.7 | 0.00 | 0.00 | 0.00 | 2 | 1013.4 |
| 20260507030016 | 7 | 338 | 4.8 | 8.0 | 0.00 | 0.00 | 0.00 | 3 | 1013.3 |
| 20260507025018 | 7 | 338 | 4.8 | 8.0 | 0.00 | 0.00 | 0.00 | 6 | 1013.3 |
| 20260507024016 | 7 | 338 | 6.4 | 9.7 | 0.00 | 0.00 | 0.00 | 3 | 1013.3 |
| 20260507023016 | 7 | 0 | 8.0 | 11.3 | 0.00 | 0.00 | 0.00 | 1 | 1013.2 |
| 20260507022016 | 7 | 0 | 6.4 | 12.9 | 0.00 | 0.00 | 0.00 | 2 | 1013.0 |
| 20260507021016 | 7 | 0 | 9.7 | 12.9 | 0.00 | 0.00 | 0.00 | 4 | 1013.0 |
| 20260507020016 | 7 | 0 | 9.7 | 14.5 | 0.00 | 0.00 | 0.00 | 1 | 1012.9 |
| 20260507015016 | 7 | 0 | 9.7 | 14.5 | 0.00 | 0.00 | 0.00 | 1 | 1012.9 |
| 20260507014039 | 7 | 0 | 9.7 | 14.5 | 0.00 | 0.00 | 0.00 | 1 | 1012.8 |
| 20260507013016 | 7 | 0 | 8.0 | 12.9 | 0.00 | 0.00 | 0.00 | 1 | 1012.9 |
| 20260507012038 | 7 | 0 | 9.7 | 11.3 | 0.00 | 0.00 | 0.00 | 1 | 1012.9 |
| 20260507011038 | 7 | 0 | 9.7 | 12.9 | 0.00 | 0.00 | 0.00 | 1 | 1012.9 |
| 20260507010016 | 7 | 0 | 8.0 | 12.9 | 0.00 | 0.00 | 0.00 | 1 | 1012.9 |
| 20260507005038 | 7 | 0 | 9.7 | 12.9 | 0.00 | 0.00 | 0.00 | 1 | 1012.9 |
| 20260507004018 | 7 | 0 | 9.7 | 12.9 | 0.00 | 0.00 | 0.00 | 1 | 1012.9 |
| 20260507003016 | 7 | 338 | 8.0 | 11.3 | 0.00 | 0.00 | 0.00 | 1 | 1012.8 |
| 20260507002016 | 7 | 0 | 8.0 | 11.3 | 0.00 | 0.00 | 0.00 | 1 | 1012.8 |
| 20260507001026 | 7 | 338 | 8.0 | 12.9 | 0.00 | 0.00 | 0.00 | 1 | 1012.8 |
| 20260507000036 | 7 | 0 | 8.0 | 12.9 | 0.00 | 0.00 | 0.00 | 1 | 1012.9 |
| 20260506235016 | 7 | 338 | 9.7 | 14.5 | 0.00 | 0.00 | 0.00 | 1 | 1012.9 |
| 20260506234016 | 7 | 0 | 8.0 | 12.9 | 0.00 | 0.00 | 0.00 | 1 | 1012.8 |
| 20260506233017 | 7 | 0 | 9.7 | 12.9 | 0.00 | 0.00 | 0.00 | 1 | 1012.8 |
| 20260506232017 | 7 | 0 | 8.0 | 11.3 | 0.00 | 0.00 | 0.00 | 1 | 1012.9 |
| 20260506231016 | 7 | 0 | 8.0 | 12.9 | 0.00 | 0.00 | 0.00 | 1 | 1012.9 |
| 20260506230016 | 7 | 0 | 8.0 | 9.7 | 0.00 | 0.00 | 0.00 | 1 | 1012.9 |
| 20260506225016 | 7 | 0 | 8.0 | 11.3 | 0.00 | 0.00 | 0.00 | 1 | 1012.7 |
| 20260506224017 | 7 | 0 | 9.7 | 12.9 | 0.00 | 0.00 | 0.00 | 1 | 1012.6 |
| 20260506223018 | 7 | 0 | 9.7 | 16.1 | 0.00 | 0.00 | 0.00 | 1 | 1012.6 |
| 20260506222016 | 7 | 0 | 9.7 | 12.9 | 0.00 | 0.00 | 0.00 | 1 | 1012.6 |
| 20260506221016 | 7 | 0 | 8.0 | 11.3 | 0.00 | 0.00 | 0.00 | 1 | 1012.6 |
| 20260506220016 | 7 | 23 | 8.0 | 12.9 | 0.00 | 0.00 | 0.00 | 1 | 1012.5 |
| 20260506215015 | 8 | 0 | 9.7 | 14.5 | 0.00 | 0.00 | 0.00 | 1 | 1012.5 |
| 20260506214039 | 8 | 0 | 9.7 | 12.9 | 0.00 | 0.00 | 0.00 | 1 | 1012.5 |
| 20260506213017 | 8 | 0 | 9.7 | 14.5 | 0.00 | 0.00 | 0.00 | 1 | 1012.5 |
| 20260506212017 | 8 | 23 | 9.7 | 16.1 | 0.00 | 0.00 | 0.00 | 1 | 1012.4 |
| 20260506211017 | 8 | 23 | 11.3 | 16.1 | 0.00 | 0.00 | 0.00 | 1 | 1012.3 |
| 20260506210038 | 8 | 23 | 12.9 | 17.7 | 0.00 | 0.00 | 0.00 | 1 | 1012.3 |
| 20260506205027 | 8 | 23 | 14.5 | 17.7 | 0.00 | 0.00 | 0.00 | 1 | 1012.2 |
| 20260506204019 | 8 | 23 | 12.9 | 17.7 | 0.00 | 0.00 | 0.00 | 1 | 1012.3 |
| 20260506203017 | 8 | 23 | 12.9 | 16.1 | 0.00 | 0.00 | 0.00 | 1 | 1012.2 |
| 20260506202019 | 8 | 23 | 11.3 | 14.5 | 0.00 | 0.00 | 0.00 | 1 | 1012.2 |
| 20260506201017 | 8 | 23 | 11.3 | 16.1 | 0.00 | 0.00 | 0.00 | 1 | 1012.1 |
| 20260506200017 | 9 | 23 | 12.9 | 16.1 | 0.00 | 0.00 | 0.00 | 2 | 1012.1 |
| 20260506195018 | 9 | 45 | 12.9 | 17.7 | 0.00 | 0.00 | 0.00 | 6 | 1012.0 |
| 20260506194017 | 9 | 45 | 12.9 | 17.7 | 0.00 | 0.00 | 0.00 | 11 | 1011.8 |
| 20260506193017 | 10 | 23 | 14.5 | 19.3 | 0.00 | 0.00 | 0.00 | 17 | 1011.7 |
| 20260506192017 | 10 | 23 | 16.1 | 20.9 | 0.00 | 0.00 | 0.00 | 18 | 1011.6 |
| 20260506191017 | 10 | 23 | 17.7 | 20.9 | 0.00 | 0.00 | 0.00 | 26 | 1011.4 |
| 20260506190039 | 10 | 23 | 17.7 | 25.7 | 0.00 | 0.00 | 0.00 | 29 | 1011.4 |
| 20260506185022 | 11 | 23 | 19.3 | 24.1 | 0.00 | 0.00 | 0.00 | 36 | 1011.3 |
| 20260506184017 | 11 | 23 | 19.3 | 25.7 | 0.00 | 0.00 | 0.00 | 43 | 1011.2 |
| 20260506183059 | 11 | 23 | 20.9 | 27.4 | 0.00 | 0.00 | 0.00 | 52 | 1011.1 |
| 20260506182017 | 11 | 23 | 20.9 | 25.7 | 0.00 | 0.00 | 0.00 | 57 | 1011.0 |
| 20260506181037 | 12 | 23 | 22.5 | 30.6 | 0.00 | 0.00 | 0.00 | 61 | 1010.8 |
| 20260506180017 | 12 | 23 | 22.5 | 30.6 | 0.00 | 0.00 | 0.00 | 63 | 1010.7 |
| 20260506175017 | 12 | 45 | 25.7 | 33.8 | 0.00 | 0.00 | 0.00 | 63 | 1010.6 |
| 20260506174039 | 12 | 23 | 25.7 | 32.2 | 0.00 | 0.00 | 0.00 | 63 | 1010.5 |
| 20260506173037 | 12 | 23 | 24.1 | 30.6 | 0.00 | 0.00 | 0.00 | 63 | 1010.4 |
| 20260506172018 | 12 | 45 | 25.7 | 33.8 | 0.00 | 0.00 | 0.00 | 63 | 1010.7 |
| 20260506171017 | 12 | 23 | 24.1 | 33.8 | 0.00 | 0.00 | 0.00 | 62 | 1010.2 |
| 20260506170017 | 12 | 45 | 25.7 | 35.4 | 0.00 | 0.00 | 0.00 | 61 | 1010.2 |
| 20260506165037 | 12 | 45 | 25.7 | 35.4 | 0.00 | 0.00 | 0.00 | 62 | 1010.1 |
| 20260506164017 | 12 | 45 | 27.4 | 37.0 | 0.00 | 0.00 | 0.00 | 62 | 1010.1 |
| 20260506163017 | 12 | 45 | 24.1 | 30.6 | 0.00 | 0.00 | 0.00 | 61 | 1010.2 |
| 20260506162038 | 12 | 45 | 27.4 | 38.6 | 0.00 | 0.00 | 0.00 | 61 | 1010.1 |
| 20260506161017 | 12 | 45 | 25.7 | 37.0 | 0.00 | 0.00 | 0.00 | 61 | 1010.2 |
| 20260506160017 | 12 | 45 | 29.0 | 38.6 | 0.00 | 0.00 | 0.00 | 62 | 1010.1 |
| 20260506155017 | 12 | 45 | 30.6 | 40.2 | 0.00 | 0.00 | 0.00 | 63 | 1010.1 |
| 20260506154017 | 12 | 23 | 30.6 | 37.0 | 0.00 | 0.00 | 0.00 | 63 | 1010.1 |
| 20260506153018 | 12 | 45 | 30.6 | 41.8 | 0.00 | 0.00 | 0.00 | 63 | 1010.0 |
| 20260506152017 | 12 | 45 | 25.7 | 32.2 | 0.00 | 0.00 | 0.00 | 63 | 1010.0 |
| 20260506151017 | 12 | 45 | 25.7 | 33.8 | 0.00 | 0.00 | 0.00 | 62 | 1010.0 |
| 20260506150017 | 13 | 45 | 25.7 | 33.8 | 0.00 | 0.00 | 0.00 | 62 | 1010.0 |
| 20260506145038 | 13 | 45 | 22.5 | 37.0 | 0.00 | 0.00 | 0.00 | 62 | 1009.9 |
| 20260506144017 | 13 | 45 | 29.0 | 38.6 | 0.00 | 0.00 | 0.00 | 62 | 1009.8 |
| 20260506143018 | 13 | 45 | 29.0 | 35.4 | 0.00 | 0.00 | 0.00 | 62 | 1009.7 |
| 20260506142017 | 13 | 45 | 27.4 | 38.6 | 0.00 | 0.00 | 0.00 | 62 | 1009.7 |
| 20260506141017 | 13 | 45 | 25.7 | 35.4 | 0.00 | 0.00 | 0.00 | 62 | 1009.8 |
| 20260506140017 | 13 | 45 | 29.0 | 37.0 | 0.00 | 0.00 | 0.00 | 61 | 1009.9 |
| 20260506134040 | 13 | 45 | 27.4 | 37.0 | 0.00 | 0.00 | 0.00 | 63 | 1009.7 |
| 20260506133017 | 13 | 45 | 29.0 | 37.0 | 0.00 | 0.00 | 0.00 | 63 | 1009.7 |
| 20260506132037 | 13 | 45 | 29.0 | 38.6 | 0.00 | 0.00 | 0.00 | 63 | 1009.6 |
| 20260506131017 | 13 | 45 | 29.0 | 37.0 | 0.00 | 0.00 | 0.00 | 63 | 1009.6 |
| 20260506130017 | 13 | 45 | 27.4 | 33.8 | 0.00 | 0.00 | 0.00 | 62 | 1009.6 |
| 20260506125017 | 13 | 45 | 25.7 | 37.0 | 0.00 | 0.00 | 0.00 | 62 | 1009.5 |
| 20260506124018 | 13 | 45 | 30.6 | 40.2 | 0.00 | 0.00 | 0.00 | 60 | 1009.5 |
| 20260506123017 | 13 | 45 | 27.4 | 35.4 | 0.00 | 0.00 | 0.00 | 62 | 1009.5 |
| 20260506122017 | 13 | 45 | 29.0 | 37.0 | 0.00 | 0.00 | 0.00 | 62 | 1009.5 |
| 20260506121018 | 13 | 45 | 30.6 | 43.5 | 0.00 | 0.00 | 0.00 | 63 | 1009.4 |
| 20260506120037 | 13 | 45 | 29.0 | 38.6 | 0.00 | 0.00 | 0.00 | 62 | 1009.3 |
| 20260506115037 | 13 | 45 | 27.4 | 37.0 | 0.00 | 0.00 | 0.00 | 63 | 1009.3 |
| 20260506114038 | 13 | 68 | 29.0 | 38.6 | 0.00 | 0.00 | 0.00 | 61 | 1009.3 |
| 20260506113037 | 13 | 45 | 25.7 | 33.8 | 0.00 | 0.00 | 0.00 | 62 | 1009.3 |
| 20260506112016 | 13 | 68 | 29.0 | 38.6 | 0.00 | 0.00 | 0.00 | 62 | 1009.2 |
| 20260506111017 | 13 | 68 | 30.6 | 38.6 | 0.00 | 0.00 | 0.00 | 62 | 1009.2 |
| 20260506110022 | 13 | 45 | 25.7 | 35.4 | 0.00 | 0.00 | 0.00 | 62 | 1009.2 |
| 20260506105017 | 13 | 45 | 29.0 | 43.5 | 0.00 | 0.00 | 0.00 | 63 | 1009.3 |
| 20260506104017 | 13 | 45 | 24.1 | 33.8 | 0.00 | 0.00 | 0.00 | 62 | 1009.2 |
| 20260506103036 | 13 | 68 | 32.2 | 45.1 | 0.00 | 0.00 | 0.00 | 60 | 1009.2 |
| 20260506102039 | 13 | 45 | 29.0 | 38.6 | 0.00 | 0.00 | 0.00 | 62 | 1009.1 |
| 20260506101037 | 13 | 68 | 25.7 | 33.8 | 0.00 | 0.00 | 0.00 | 61 | 1009.1 |
| 20260506100037 | 13 | 45 | 27.4 | 33.8 | 0.00 | 0.00 | 0.00 | 62 | 1009.1 |
| 20260506095016 | 13 | 45 | 25.7 | 37.0 | 0.00 | 0.00 | 0.00 | 61 | 1009.0 |
| 20260506094018 | 13 | 68 | 27.4 | 38.6 | 0.00 | 0.00 | 0.00 | 62 | 1009.0 |
| 20260506093017 | 13 | 68 | 29.0 | 40.2 | 0.00 | 0.00 | 0.00 | 60 | 1009.0 |
| 20260506092017 | 13 | 68 | 29.0 | 35.4 | 0.00 | 0.00 | 0.00 | 61 | 1009.0 |
| 20260506091058 | 13 | 68 | 25.7 | 33.8 | 0.00 | 0.00 | 0.00 | 61 | 1008.9 |
| 20260506090016 | 12 | 45 | 27.4 | 35.4 | 0.00 | 0.00 | 0.00 | 60 | 1008.9 |
| 20260506085016 | 12 | 45 | 30.6 | 38.6 | 0.00 | 0.00 | 0.00 | 62 | 1008.9 |
| 20260506084016 | 12 | 68 | 29.0 | 37.0 | 0.00 | 0.00 | 0.00 | 63 | 1008.9 |
| 20260506083017 | 12 | 45 | 25.7 | 37.0 | 0.00 | 0.00 | 0.00 | 63 | 1008.8 |
| 20260506082016 | 12 | 45 | 24.1 | 32.2 | 0.00 | 0.00 | 0.00 | 60 | 1008.8 |
| 20260506081018 | 12 | 45 | 24.1 | 37.0 | 0.00 | 0.00 | 0.00 | 59 | 1008.7 |
| 20260506073016 | 12 | 45 | 20.9 | 30.6 | 0.00 | 0.00 | 0.00 | 32 | 1008.6 |
| 20260506072016 | 11 | 45 | 22.5 | 30.6 | 0.00 | 0.00 | 0.00 | 26 | 1008.6 |
| 20260506071038 | 11 | 45 | 24.1 | 29.0 | 0.00 | 0.00 | 0.00 | 23 | 1008.6 |
| 20260506062018 | 10 | 45 | 19.3 | 27.4 | 0.00 | 0.00 | 0.00 | 1 | 1008.4 |
| 20260506061026 | 10 | 45 | 16.1 | 22.5 | 0.00 | 0.00 | 0.00 | 1 | 1008.4 |